{"data":{"norad_id":58197,"intl_designator":"2023-167Y","name":"STARLINK-30762","alt_names":[],"object_type":"PAYLOAD","status":"ACTIVE","operator":null,"country":"US","launch_date":"2023-10-30","launch_site_code":"AFETR","launch_vehicle":null,"mission":null,"orbit_class":"UNKNOWN","rcs_meters":null,"size_class":null,"mass_kg":null,"dimensions":null,"purposes":["comms"],"wikipedia_slug":null,"has_3d_model":false,"image_url":null,"decayed_at":null,"tle_current":{"epoch":"2026-05-25T04:57:40.348800Z","epoch_age_seconds":54433,"freshness":"FRESH","line1":"1 58197U 23167Y   26145.20671700  .00001686  00000+0  70766-4 0  9990","line2":"2 58197  43.0015  71.5850 0001421 265.1603  94.9087 15.27578575142682","mean_motion":15.27578575,"eccentricity":0.0001421,"inclination_deg":43.0015,"raan_deg":71.585,"arg_perigee_deg":265.1603,"mean_anomaly_deg":94.9087,"bstar":7.0766e-5,"rev_number":14268,"period_min":94.266836650285,"perigee_km":482.07838785503,"apogee_km":484.02833815619,"semimajor_km":6861.1903630056,"source":"CELESTRAK","updated_at":"2026-05-25T13:38:18.573629Z"}}}